THOR ABLESTAR DEB, 1522

Orbit data source: Space-Track

THOR ABLESTAR DEB, 1522 is space debris in LEO originally from a launch on Fri, 13 Aug 1965 UTC launched from the Air Force Western Test Range (AFWTR). Debris objects in space refer to the collection of defunct objects orbiting the Earth. Examples of debris include non-operational satellites, rocket bodies, and fragments generated from explosions, collisions, or faulty payload assembly.

Loading next visibility...
Identifier
1522, 1965-065L
Orbit
LEO
Country
Flag of USUS
Related business
Manufacturer
Unknown
Mission
Spacecraft
Bus & Motor
Unknown
Mass
Unknown
Launch date (UTC)
1965-08-13 (60 years ago)
Launch vehicle
Unknown
Launch site
Air Force Western Test Range (AFWTR)
Object type
Payload
Rocket body
Debris
Shape & HBR
Unknown
Radar Cross Section
Medium (>0.1 m² and <1 m²)

Expand to show TLE details & history
Last TLE update: 5 hours ago

TLE from 5 hours ago
0 THOR ABLESTAR DEB
1 01522U 65065L   25242.92916344  .00000047  00000-0  76397-4 0  9992
2 01522  90.0859 124.3456 0070712 344.4735  25.3509 13.33826245921109
Epoch: 2025-08-30T22:17Z
TLE epoch observation values (Epoch: 2025-08-30T22:17:59.721Z)
Latitude
10.11999°
Longitude
170.4751°
Altitude
1,086.621 km
Speed
7.333 km/s
True Right ascension
08h 17m 19s
True Declination
10° 03' 48"
Sunlit
Object was in daylight at epoch
Visualization orbit readout
Latitude
Unknown
Longitude
Unknown
Altitude
Unknown
Speed
Unknown
Apparent Right ascension
Unknown
Apparent Declination
Unknown
Sunlit
N/A
Visualization observer readout
Local Sidereal Time
18:55:41
Azimuth
Unknown
Elevation
Unknown
Doppler factor
Unknown
Orbital elements
Apogee altitude
1,182.526 km
Perigee altitude
1,076.351 km
Semi-major axis
7,507.576 km
Eccentricity
0.00707
Inclination
90.0859°
RAAN
124.3456°
Arg. of periapsis
344.4735°
True anomaly
25.70063°
Mean anomaly
25.3509°
Eccentric anomaly
25.52548°
Mean motion
3.33652 °/min
Orbital period
107.9 mins
BSTAR
0.000076397
Loading maneuver chart data...
Computing Atmospheric mass density...
Loading historical data...
Loading historical data...
Loading historical data...
Loading historical data...
Loading historical data...
Loading historical data...
Loading historical data...

Documentation

Showing up to 5 results
|